DECAYED

CZ-6A DEB, 60773 (Decayed)

Orbit data source: Space-Track

CZ-6A DEB, 60773 was space debris in LEO originally from a launch on Tue, 06 Aug 2024 UTC launched from the Taiyaun Space Center, China (TSC). Debris objects in space refer to the collection of defunct objects orbiting the Earth. Examples of debris include non-operational satellites, rocket bodies, and fragments generated from explosions, collisions, or faulty payload assembly.

Not visible in the next 10 days
Identifier
60773, 2024-140EY
Orbit
Decayed
Country
Flag of CNCN / PRC
Related business
Manufacturer
SAST
Mission
Decayed spacecraft
Bus & Motor
Unknown
Mass
Unknown
Launch date (UTC)
2024-08-06 (2 years ago)
Launch vehicle
Unknown
Launch site
Taiyaun Space Center, China (TSC)
Object type
Payload
Rocket body
Debris
Shape & HBR
Unknown shape, 0.1 m
Radar Cross Section
Medium (>0.1 m² and <1 m²)

Expand to show TLE details & history
Last TLE update: 1 year ago

TLE from 1 year ago
0 CZ-6A DEB
1 60773U 24140EY  25001.23635653  .12335594  27400+0  71972-1 0  9996
2 60773  88.9702 332.9594 0028071 158.0519 202.1971 15.85011945 20374
Epoch: 2025-01-01T05:40Z
TLE epoch observation values (Epoch: 2025-01-01T05:40:21.204Z)
Latitude
-0.00004°
Longitude
146.73852°
Altitude
336.988 km
Speed
7.696 km/s
True Right ascension
22h 11m 50s
True Declination
0° 00' 00"
Sunlit
Object was in daylight at epoch
Visualization orbit readout
Latitude
Unknown
Longitude
Unknown
Altitude
Unknown
Speed
Unknown
Apparent Right ascension
Unknown
Apparent Declination
Unknown
Sunlit
N/A
Visualization observer readout
Local Sidereal Time
07:21:11
Azimuth
Unknown
Elevation
Unknown
Doppler factor
Unknown
Orbital elements
Apogee altitude
331.793 km
Perigee altitude
294.227 km
Semi-major axis
6,691.147 km
Eccentricity
0.00281
Inclination
88.9702°
RAAN
332.9594°
Arg. of periapsis
158.0519°
True anomaly
202.07597°
Mean anomaly
202.1971°
Eccentric anomaly
202.1365°
Mean motion
3.96545 °/min
Orbital period
90.78 mins
BSTAR
0.071972
Loading maneuver chart data...
Computing Atmospheric mass density...
Loading historical data...
Loading historical data...
Loading historical data...
Loading historical data...
Loading historical data...
Loading historical data...
Loading historical data...

Documentation

Showing up to 5 results
|